Time,TemperatureF,DewpointF,PressureIn,WindDirection,WindDirectionDegrees,WindSpeedMPH,WindSpeedGustMPH,Humidity,HourlyPrecipIn,Conditions,Clouds,dailyrainin,SoftwareType,DateUTC
2013-03-31 00:00:00,48.6,40.3,29.88,NE,42,3.0,3.0,73,0.00,,,0.00,VWS V14.00,2013-03-31 05:00:00,
2013-03-31 00:05:00,48.3,40.8,29.88,NE,42,3.0,3.0,75,0.00,,,0.00,VWS V14.00,2013-03-31 05:05:00,
2013-03-31 00:10:00,48.2,41.0,29.88,NE,42,3.0,3.0,76,0.00,,,0.00,VWS V14.00,2013-03-31 05:10:00,
2013-03-31 00:15:00,48.1,40.9,29.89,NE,42,3.0,3.0,76,0.00,,,0.00,VWS V14.00,2013-03-31 05:15:00,
2013-03-31 00:20:00,48.0,41.2,29.88,NE,42,3.0,3.0,77,0.00,,,0.00,VWS V14.00,2013-03-31 05:20:00,
2013-03-31 00:25:00,47.9,41.0,29.89,NE,42,3.0,3.0,77,0.00,,,0.00,VWS V14.00,2013-03-31 05:25:00,
2013-03-31 00:30:00,47.9,41.0,29.89,NE,42,3.0,3.0,77,0.00,,,0.00,VWS V14.00,2013-03-31 05:30:00,
2013-03-31 00:35:00,47.8,41.0,29.89,NE,42,3.0,3.0,77,0.00,,,0.00,VWS V14.00,2013-03-31 05:35:00,
2013-03-31 00:40:00,47.7,41.2,29.89,NE,42,3.0,3.0,78,0.00,,,0.00,VWS V14.00,2013-03-31 05:40:00,
2013-03-31 00:45:00,47.7,41.5,29.89,NE,42,3.0,3.0,79,0.00,,,0.00,VWS V14.00,2013-03-31 05:45:00,
2013-03-31 00:50:00,47.7,41.5,29.89,NE,42,3.0,3.0,79,0.00,,,0.00,VWS V14.00,2013-03-31 05:50:00,
2013-03-31 00:55:00,47.7,41.8,29.90,NE,42,3.0,3.0,80,0.00,,,0.00,VWS V14.00,2013-03-31 05:55:00,
2013-03-31 01:00:00,47.8,41.9,29.90,NE,42,3.0,3.0,80,0.00,,,0.00,VWS V14.00,2013-03-31 06:00:00,
2013-03-31 01:05:00,47.7,42.2,29.90,NE,42,3.0,3.0,81,0.00,,,0.00,VWS V14.00,2013-03-31 06:05:00,
2013-03-31 01:10:00,47.7,42.2,29.90,NE,42,3.0,3.0,81,0.00,,,0.00,VWS V14.00,2013-03-31 06:10:00,
2013-03-31 01:15:00,47.6,42.1,29.90,NE,42,3.0,3.0,81,0.00,,,0.00,VWS V14.00,2013-03-31 06:15:00,
2013-03-31 01:21:00,47.6,42.1,29.90,NE,42,3.0,3.0,81,0.00,,,0.00,VWS V14.00,2013-03-31 06:21:00,
2013-03-31 01:26:00,47.5,42.0,29.90,NE,42,3.0,3.0,81,0.00,,,0.00,VWS V14.00,2013-03-31 06:26:00,
2013-03-31 01:30:00,47.5,42.0,29.90,NE,42,3.0,3.0,81,0.00,,,0.00,VWS V14.00,2013-03-31 06:30:00,
2013-03-31 01:31:00,47.5,42.0,29.90,NE,42,3.0,3.0,81,0.00,,,0.00,VWS V14.00,2013-03-31 06:31:00,
2013-03-31 01:37:00,47.3,41.8,29.90,NE,42,3.0,3.0,81,0.00,,,0.00,VWS V14.00,2013-03-31 06:37:00,
2013-03-31 01:42:00,47.2,41.4,29.90,NE,42,3.0,3.0,80,0.00,,,0.00,VWS V14.00,2013-03-31 06:42:00,
2013-03-31 01:47:00,46.9,41.7,29.90,NE,42,3.0,3.0,82,0.00,,,0.00,VWS V14.00,2013-03-31 06:47:00,
2013-03-31 01:52:00,46.8,41.9,29.90,NE,42,3.0,3.0,83,0.00,,,0.00,VWS V14.00,2013-03-31 06:52:00,
2013-03-31 01:57:00,46.7,41.8,29.90,NE,42,3.0,3.0,83,0.00,,,0.00,VWS V14.00,2013-03-31 06:57:00,
2013-03-31 02:00:00,46.6,41.7,29.90,NE,42,3.0,3.0,83,0.00,,,0.00,VWS V14.00,2013-03-31 07:00:00,
2013-03-31 02:02:00,46.5,41.6,29.90,NE,42,3.0,3.0,83,0.00,,,0.00,VWS V14.00,2013-03-31 07:02:00,
2013-03-31 02:07:00,46.4,41.5,29.90,NE,42,3.0,3.0,83,0.00,,,0.00,VWS V14.00,2013-03-31 07:07:00,
2013-03-31 02:13:00,46.2,41.3,29.90,NE,42,3.0,3.0,83,0.00,,,0.00,VWS V14.00,2013-03-31 07:13:00,
2013-03-31 02:18:00,46.0,41.1,29.90,NE,42,3.0,3.0,83,0.00,,,0.00,VWS V14.00,2013-03-31 07:18:00,
2013-03-31 02:23:00,45.8,40.6,29.90,NE,42,3.0,3.0,82,0.00,,,0.00,VWS V14.00,2013-03-31 07:23:00,
2013-03-31 02:28:00,45.6,40.4,29.90,NE,42,3.0,3.0,82,0.00,,,0.00,VWS V14.00,2013-03-31 07:28:00,
2013-03-31 02:30:00,45.6,40.4,29.90,NE,42,3.0,3.0,82,0.00,,,0.00,VWS V14.00,2013-03-31 07:30:00,
2013-03-31 02:33:00,45.3,40.1,29.90,NE,42,3.0,3.0,82,0.00,,,0.00,VWS V14.00,2013-03-31 07:33:00,
2013-03-31 02:38:00,45.0,40.2,29.90,NE,42,3.0,3.0,83,0.00,,,0.00,VWS V14.00,2013-03-31 07:38:00,
2013-03-31 02:43:00,44.8,40.3,29.90,NE,42,3.0,3.0,84,0.00,,,0.00,VWS V14.00,2013-03-31 07:43:00,
2013-03-31 02:48:00,44.6,40.4,29.90,NE,42,3.0,3.0,85,0.00,,,0.00,VWS V14.00,2013-03-31 07:48:00,
2013-03-31 02:53:00,44.3,39.8,29.90,NE,42,3.0,3.0,84,0.00,,,0.00,VWS V14.00,2013-03-31 07:53:00,
2013-03-31 02:58:00,44.1,39.6,29.90,NE,42,3.0,3.0,84,0.00,,,0.00,VWS V14.00,2013-03-31 07:58:00,
2013-03-31 03:00:00,44.1,39.6,29.90,NE,42,3.0,3.0,84,0.00,,,0.00,VWS V14.00,2013-03-31 08:00:00,
2013-03-31 03:03:00,43.8,39.3,29.90,NE,42,3.0,3.0,84,0.00,,,0.00,VWS V14.00,2013-03-31 08:03:00,
2013-03-31 03:08:00,43.5,39.0,29.89,NE,42,3.0,3.0,84,0.00,,,0.00,VWS V14.00,2013-03-31 08:08:00,
2013-03-31 03:13:00,43.2,39.0,29.89,NE,42,3.0,3.0,85,0.00,,,0.00,VWS V14.00,2013-03-31 08:13:00,
2013-03-31 03:18:00,42.9,38.7,29.89,NE,42,3.0,3.0,85,0.00,,,0.00,VWS V14.00,2013-03-31 08:18:00,
2013-03-31 03:24:00,42.7,38.8,29.89,NE,42,3.0,3.0,86,0.00,,,0.00,VWS V14.00,2013-03-31 08:24:00,
2013-03-31 03:29:00,42.5,38.6,29.89,NE,42,3.0,3.0,86,0.00,,,0.00,VWS V14.00,2013-03-31 08:29:00,
2013-03-31 03:30:00,42.5,38.6,29.89,NE,42,3.0,3.0,86,0.00,,,0.00,VWS V14.00,2013-03-31 08:30:00,
2013-03-31 03:34:00,42.3,38.4,29.89,NE,42,3.0,3.0,86,0.00,,,0.00,VWS V14.00,2013-03-31 08:34:00,
2013-03-31 03:39:00,42.1,38.2,29.88,NE,42,3.0,3.0,86,0.00,,,0.00,VWS V14.00,2013-03-31 08:39:00,
2013-03-31 03:44:00,41.9,38.3,29.89,NE,42,3.0,3.0,87,0.00,,,0.00,VWS V14.00,2013-03-31 08:44:00,
2013-03-31 03:49:00,41.8,38.5,29.89,NE,42,3.0,3.0,88,0.00,,,0.00,VWS V14.00,2013-03-31 08:49:00,
2013-03-31 03:54:00,41.6,38.3,29.89,NE,42,3.0,3.0,88,0.00,,,0.00,VWS V14.00,2013-03-31 08:54:00,
2013-03-31 03:59:00,41.5,38.2,29.89,NE,42,3.0,3.0,88,0.00,,,0.00,VWS V14.00,2013-03-31 08:59:00,
2013-03-31 04:00:00,41.6,38.3,29.89,NE,42,3.0,3.0,88,0.00,,,0.00,VWS V14.00,2013-03-31 09:00:00,
2013-03-31 04:04:00,41.4,38.1,29.88,NE,42,3.0,3.0,88,0.00,,,0.00,VWS V14.00,2013-03-31 09:04:00,
2013-03-31 04:09:00,41.3,38.0,29.88,NE,42,3.0,3.0,88,0.00,,,0.00,VWS V14.00,2013-03-31 09:09:00,
2013-03-31 04:15:00,41.2,38.2,29.88,NE,42,3.0,3.0,89,0.00,,,0.00,VWS V14.00,2013-03-31 09:15:00,
2013-03-31 04:20:00,41.0,38.0,29.89,NE,42,3.0,3.0,89,0.00,,,0.00,VWS V14.00,2013-03-31 09:20:00,
2013-03-31 04:25:00,40.8,37.8,29.89,NE,42,3.0,3.0,89,0.00,,,0.00,VWS V14.00,2013-03-31 09:25:00,
2013-03-31 04:30:00,40.7,37.7,29.88,NE,42,3.0,3.0,89,0.00,,,0.00,VWS V14.00,2013-03-31 09:30:00,
2013-03-31 04:35:00,40.6,37.6,29.89,NE,42,3.0,3.0,89,0.00,,,0.00,VWS V14.00,2013-03-31 09:35:00,
2013-03-31 04:40:00,40.5,37.8,29.89,NE,42,3.0,3.0,90,0.00,,,0.00,VWS V14.00,2013-03-31 09:40:00,
2013-03-31 04:45:00,40.4,37.7,29.89,NE,42,3.0,3.0,90,0.00,,,0.00,VWS V14.00,2013-03-31 09:45:00,
2013-03-31 04:50:00,40.4,37.7,29.89,NE,42,3.0,3.0,90,0.00,,,0.00,VWS V14.00,2013-03-31 09:50:00,
2013-03-31 04:55:00,40.4,38.0,29.89,NE,42,3.0,3.0,91,0.00,,,0.00,VWS V14.00,2013-03-31 09:55:00,
2013-03-31 05:00:00,40.3,37.9,29.89,NE,42,3.0,3.0,91,0.00,,,0.00,VWS V14.00,2013-03-31 10:00:00,
2013-03-31 05:05:00,40.3,37.9,29.89,NE,42,3.0,3.0,91,0.00,,,0.00,VWS V14.00,2013-03-31 10:05:00,
2013-03-31 05:10:00,40.3,37.9,29.89,NE,42,3.0,3.0,91,0.00,,,0.00,VWS V14.00,2013-03-31 10:10:00,
2013-03-31 05:15:00,40.3,37.9,29.89,NE,42,3.0,3.0,91,0.00,,,0.00,VWS V14.00,2013-03-31 10:15:00,
2013-03-31 05:20:00,40.3,37.9,29.89,NE,42,3.0,3.0,91,0.00,,,0.00,VWS V14.00,2013-03-31 10:20:00,
2013-03-31 05:26:00,40.3,37.9,29.89,NE,42,3.0,3.0,91,0.00,,,0.00,VWS V14.00,2013-03-31 10:26:00,
2013-03-31 05:30:00,40.3,37.9,29.89,NE,42,3.0,3.0,91,0.00,,,0.00,VWS V14.00,2013-03-31 10:30:00,
2013-03-31 05:32:00,40.3,37.9,29.89,NE,42,3.0,3.0,91,0.00,,,0.00,VWS V14.00,2013-03-31 10:32:00,
2013-03-31 05:37:00,40.3,37.9,29.89,NE,42,3.0,3.0,91,0.00,,,0.00,VWS V14.00,2013-03-31 10:37:00,
2013-03-31 05:42:00,40.3,37.9,29.89,NE,42,3.0,3.0,91,0.00,,,0.00,VWS V14.00,2013-03-31 10:42:00,
2013-03-31 05:47:00,40.2,37.8,29.89,NE,42,3.0,3.0,91,0.00,,,0.00,VWS V14.00,2013-03-31 10:47:00,
2013-03-31 05:52:00,40.2,37.8,29.89,NE,42,3.0,3.0,91,0.00,,,0.00,VWS V14.00,2013-03-31 10:52:00,
2013-03-31 05:57:00,40.2,37.8,29.89,NE,42,3.0,3.0,91,0.00,,,0.00,VWS V14.00,2013-03-31 10:57:00,
2013-03-31 06:00:00,40.2,37.8,29.89,NE,42,3.0,3.0,91,0.00,,,0.00,VWS V14.00,2013-03-31 11:00:00,
2013-03-31 06:02:00,40.1,37.7,29.90,NE,42,3.0,3.0,91,0.00,,,0.00,VWS V14.00,2013-03-31 11:02:00,
2013-03-31 06:07:00,40.0,37.6,29.90,NE,42,3.0,3.0,91,0.00,,,0.00,VWS V14.00,2013-03-31 11:07:00,
2013-03-31 06:12:00,39.8,37.4,29.90,NE,42,3.0,3.0,91,0.00,,,0.00,VWS V14.00,2013-03-31 11:12:00,
2013-03-31 06:17:00,39.7,37.3,29.90,NE,42,3.0,3.0,91,0.00,,,0.00,VWS V14.00,2013-03-31 11:17:00,
2013-03-31 06:23:00,39.5,37.1,29.90,NE,42,3.0,3.0,91,0.00,,,0.00,VWS V14.00,2013-03-31 11:23:00,
2013-03-31 06:28:00,39.4,37.0,29.90,NE,42,3.0,3.0,91,0.00,,,0.00,VWS V14.00,2013-03-31 11:28:00,
2013-03-31 06:30:00,39.4,37.0,29.90,NE,42,3.0,3.0,91,0.00,,,0.00,VWS V14.00,2013-03-31 11:30:00,
2013-03-31 06:33:00,39.3,36.9,29.89,NE,42,3.0,3.0,91,0.00,,,0.00,VWS V14.00,2013-03-31 11:33:00,
2013-03-31 06:38:00,39.1,36.7,29.89,NE,42,3.0,3.0,91,0.00,,,0.00,VWS V14.00,2013-03-31 11:38:00,
2013-03-31 06:43:00,39.1,36.7,29.89,NE,42,3.0,3.0,91,0.00,,,0.00,VWS V14.00,2013-03-31 11:43:00,
2013-03-31 06:48:00,38.9,36.5,29.89,NE,42,3.0,3.0,91,0.00,,,0.00,VWS V14.00,2013-03-31 11:48:00,
2013-03-31 06:53:00,38.9,36.5,29.90,NE,42,3.0,3.0,91,0.00,,,0.00,VWS V14.00,2013-03-31 11:53:00,
2013-03-31 06:58:00,38.8,36.4,29.90,NE,42,3.0,3.0,91,0.00,,,0.00,VWS V14.00,2013-03-31 11:58:00,
2013-03-31 07:00:00,38.8,36.4,29.90,NE,42,3.0,3.0,91,0.00,,,0.00,VWS V14.00,2013-03-31 12:00:00,
2013-03-31 07:05:00,38.6,36.2,29.90,NE,42,3.0,3.0,91,0.00,,,0.00,VWS V14.00,2013-03-31 12:05:00,
2013-03-31 07:10:00,38.6,36.2,29.90,NE,42,3.0,3.0,91,0.00,,,0.00,VWS V14.00,2013-03-31 12:10:00,
2013-03-31 07:15:00,38.4,36.0,29.90,NE,42,3.0,3.0,91,0.00,,,0.00,VWS V14.00,2013-03-31 12:15:00,
2013-03-31 07:20:00,38.4,36.0,29.91,NE,42,3.0,3.0,91,0.00,,,0.00,VWS V14.00,2013-03-31 12:20:00,
2013-03-31 07:25:00,38.3,35.9,29.91,NE,42,3.0,3.0,91,0.00,,,0.00,VWS V14.00,2013-03-31 12:25:00,
2013-03-31 07:30:00,38.2,35.8,29.91,NE,42,3.0,3.0,91,0.00,,,0.00,VWS V14.00,2013-03-31 12:30:00,
2013-03-31 07:36:00,38.0,35.6,29.92,NE,42,3.0,3.0,91,0.00,,,0.00,VWS V14.00,2013-03-31 12:36:00,
2013-03-31 07:41:00,38.0,35.6,29.92,NE,42,3.0,3.0,91,0.00,,,0.00,VWS V14.00,2013-03-31 12:41:00,
2013-03-31 07:46:00,38.0,35.6,29.92,NE,42,3.0,3.0,91,0.00,,,0.00,VWS V14.00,2013-03-31 12:46:00,
2013-03-31 07:51:00,38.0,35.9,29.92,NE,42,3.0,3.0,92,0.00,,,0.00,VWS V14.00,2013-03-31 12:51:00,
2013-03-31 07:56:00,38.0,35.9,29.92,NE,42,3.0,3.0,92,0.00,,,0.00,VWS V14.00,2013-03-31 12:56:00,
2013-03-31 08:00:00,38.0,35.9,29.92,North,355,0.0,5.0,92,0.00,,,0.00,VWS V14.00,2013-03-31 13:00:00,
2013-03-31 08:02:00,38.0,35.9,29.92,NNW,340,5.0,10.0,92,0.00,,,0.00,VWS V14.00,2013-03-31 13:02:00,
2013-03-31 08:07:00,38.1,36.0,29.93,NNW,340,0.0,10.0,92,0.00,,,0.00,VWS V14.00,2013-03-31 13:07:00,
2013-03-31 08:12:00,38.3,36.2,29.92,NNW,340,0.0,10.0,92,0.00,,,0.00,VWS V14.00,2013-03-31 13:12:00,
2013-03-31 08:17:00,38.4,36.3,29.93,NNW,340,0.0,10.0,92,0.00,,,0.00,VWS V14.00,2013-03-31 13:17:00,
2013-03-31 08:22:00,38.6,36.5,29.93,NNW,340,0.0,10.0,92,0.00,,,0.00,VWS V14.00,2013-03-31 13:22:00,
2013-03-31 08:28:00,38.9,36.8,29.93,NNW,341,0.0,10.0,92,0.00,,,0.00,VWS V14.00,2013-03-31 13:28:00,
2013-03-31 08:30:00,38.9,36.8,29.93,NNW,341,0.0,10.0,92,0.00,,,0.00,VWS V14.00,2013-03-31 13:30:00,
2013-03-31 08:33:00,39.2,37.1,29.93,NNW,342,0.0,7.0,92,0.00,,,0.00,VWS V14.00,2013-03-31 13:33:00,
2013-03-31 08:38:00,39.5,37.4,29.93,NNW,346,0.0,7.0,92,0.00,,,0.00,VWS V14.00,2013-03-31 13:38:00,
2013-03-31 08:43:00,39.9,37.8,29.93,NNW,348,2.0,9.0,92,0.00,,,0.00,VWS V14.00,2013-03-31 13:43:00,
2013-03-31 08:48:00,40.3,38.2,29.93,North,360,4.0,9.0,92,0.00,,,0.00,VWS V14.00,2013-03-31 13:48:00,
2013-03-31 08:53:00,40.8,38.7,29.94,North,360,6.0,11.0,92,0.00,,,0.00,VWS V14.00,2013-03-31 13:53:00,
2013-03-31 08:58:00,41.3,38.9,29.93,North,349,5.0,7.0,91,0.00,,,0.00,VWS V14.00,2013-03-31 13:58:00,
2013-03-31 09:00:00,41.2,38.8,29.93,NW,305,5.0,11.0,91,0.00,,,0.00,VWS V14.00,2013-03-31 14:00:00,
2013-03-31 09:03:00,41.8,38.8,29.93,North,355,6.0,7.0,89,0.00,,,0.00,VWS V14.00,2013-03-31 14:03:00,
2013-03-31 09:09:00,42.2,38.9,29.93,North,5,6.0,7.0,88,0.00,,,0.00,VWS V14.00,2013-03-31 14:09:00,
2013-03-31 09:14:00,42.7,38.8,29.94,North,355,5.0,13.0,86,0.00,,,0.00,VWS V14.00,2013-03-31 14:14:00,
2013-03-31 09:19:00,43.1,38.9,29.94,North,10,3.0,13.0,85,0.00,,,0.00,VWS V14.00,2013-03-31 14:19:00,
2013-03-31 09:24:00,43.6,39.4,29.93,North,355,5.0,13.0,85,0.00,,,0.00,VWS V14.00,2013-03-31 14:24:00,
2013-03-31 09:29:00,44.0,39.2,29.93,North,5,7.0,8.0,83,0.00,,,0.00,VWS V14.00,2013-03-31 14:29:00,
2013-03-31 09:30:00,43.9,39.4,29.93,NNE,13,8.0,13.0,84,0.00,,,0.00,VWS V14.00,2013-03-31 14:30:00,
2013-03-31 09:34:00,44.4,39.6,29.93,NNE,13,4.0,9.0,83,0.00,,,0.00,VWS V14.00,2013-03-31 14:34:00,
2013-03-31 09:39:00,44.9,39.8,29.93,North,5,5.0,12.0,82,0.00,,,0.00,VWS V14.00,2013-03-31 14:39:00,
2013-03-31 09:44:00,45.4,39.9,29.93,NNE,13,8.0,13.0,81,0.00,,,0.00,VWS V14.00,2013-03-31 14:44:00,
2013-03-31 09:49:00,46.0,39.5,29.93,NNE,13,7.0,13.0,78,0.00,,,0.00,VWS V14.00,2013-03-31 14:49:00,
2013-03-31 09:54:00,46.5,39.7,29.93,NNE,17,10.0,16.0,77,0.00,,,0.00,VWS V14.00,2013-03-31 14:54:00,
2013-03-31 09:59:00,46.9,39.7,29.93,North,360,7.0,7.0,76,0.00,,,0.00,VWS V14.00,2013-03-31 14:59:00,
2013-03-31 10:00:00,46.8,39.7,29.93,NE,38,4.0,16.0,76,0.00,,,0.00,VWS V14.00,2013-03-31 15:00:00,
2013-03-31 10:04:00,47.5,39.6,29.93,North,355,6.0,14.0,74,0.00,,,0.00,VWS V14.00,2013-03-31 15:04:00,
2013-03-31 10:09:00,48.2,40.0,29.93,North,10,6.0,15.0,73,0.00,,,0.00,VWS V14.00,2013-03-31 15:09:00,
2013-03-31 10:15:00,49.0,39.7,29.93,NNE,16,13.0,18.0,70,0.00,,,0.00,VWS V14.00,2013-03-31 15:15:00,
2013-03-31 10:20:00,49.5,39.8,29.93,NNW,347,7.0,20.0,69,0.00,,,0.00,VWS V14.00,2013-03-31 15:20:00,
2013-03-31 10:25:00,50.0,40.2,29.93,North,9,7.0,20.0,69,0.00,,,0.00,VWS V14.00,2013-03-31 15:25:00,
2013-03-31 10:30:00,50.3,39.8,29.93,NNE,24,9.0,18.0,67,0.00,,,0.00,VWS V14.00,2013-03-31 15:30:00,
2013-03-31 10:35:00,50.6,39.3,29.93,North,5,11.0,24.0,65,0.00,,,0.00,VWS V14.00,2013-03-31 15:35:00,
2013-03-31 10:40:00,50.9,39.6,29.93,North,350,11.0,24.0,65,0.00,,,0.00,VWS V14.00,2013-03-31 15:40:00,
2013-03-31 10:45:00,51.1,38.5,29.93,North,355,6.0,24.0,62,0.00,,,0.00,VWS V14.00,2013-03-31 15:45:00,
2013-03-31 10:50:00,51.5,38.5,29.94,NNE,22,9.0,24.0,61,0.00,,,0.00,VWS V14.00,2013-03-31 15:50:00,
2013-03-31 10:55:00,52.0,38.6,29.94,North,355,6.0,24.0,60,0.00,,,0.00,VWS V14.00,2013-03-31 15:55:00,
2013-03-31 11:00:00,52.3,38.4,29.94,North,355,12.0,24.0,59,0.00,,,0.00,VWS V14.00,2013-03-31 16:00:00,
2013-03-31 11:01:00,52.5,38.6,29.94,North,360,9.0,12.0,59,0.00,,,0.00,VWS V14.00,2013-03-31 16:01:00,
2013-03-31 11:06:00,53.0,38.2,29.94,NNW,339,5.0,14.0,57,0.00,,,0.00,VWS V14.00,2013-03-31 16:06:00,
2013-03-31 11:11:00,53.4,37.7,29.94,NE,51,11.0,19.0,55,0.00,,,0.00,VWS V14.00,2013-03-31 16:11:00,
2013-03-31 11:16:00,53.6,34.9,29.94,North,360,7.0,19.0,49,0.00,,,0.00,VWS V14.00,2013-03-31 16:16:00,
2013-03-31 11:21:00,53.7,35.5,29.94,NE,36,12.0,19.0,50,0.00,,,0.00,VWS V14.00,2013-03-31 16:21:00,
2013-03-31 11:26:00,53.9,35.7,29.94,NNW,338,12.0,19.0,50,0.00,,,0.00,VWS V14.00,2013-03-31 16:26:00,
2013-03-31 11:31:00,54.2,34.4,29.94,North,360,5.0,18.0,47,0.00,,,0.00,VWS V14.00,2013-03-31 16:31:00,
2013-03-31 11:37:00,54.4,34.1,29.94,NNE,17,5.0,20.0,46,0.00,,,0.00,VWS V14.00,2013-03-31 16:37:00,
2013-03-31 11:42:00,54.6,33.7,29.94,NW,319,15.0,21.0,45,0.00,,,0.00,VWS V14.00,2013-03-31 16:42:00,
2013-03-31 11:47:00,54.6,33.7,29.94,NE,35,9.0,23.0,45,0.00,,,0.00,VWS V14.00,2013-03-31 16:47:00,
2013-03-31 11:52:00,55.0,34.6,29.94,North,5,8.0,23.0,46,0.00,,,0.00,VWS V14.00,2013-03-31 16:52:00,
2013-03-31 11:57:00,55.3,33.2,29.94,North,360,10.0,23.0,43,0.00,,,0.00,VWS V14.00,2013-03-31 16:57:00,
2013-03-31 12:00:00,55.3,33.2,29.94,North,360,10.0,23.0,43,0.00,,,0.00,VWS V14.00,2013-03-31 17:00:00,
2013-03-31 12:02:00,55.4,33.9,29.94,NNW,331,15.0,23.0,44,0.00,,,0.00,VWS V14.00,2013-03-31 17:02:00,
2013-03-31 12:07:00,55.5,34.0,29.94,North,11,11.0,23.0,44,0.00,,,0.00,VWS V14.00,2013-03-31 17:07:00,
2013-03-31 12:12:00,55.6,34.0,29.94,NNE,15,9.0,23.0,44,0.00,,,0.00,VWS V14.00,2013-03-31 17:12:00,
2013-03-31 12:17:00,56.1,33.3,29.94,NNW,346,6.0,23.0,42,0.00,,,0.00,VWS V14.00,2013-03-31 17:17:00,
2013-03-31 12:22:00,56.5,33.7,29.94,NNW,343,14.0,23.0,42,0.00,,,0.00,VWS V14.00,2013-03-31 17:22:00,
2013-03-31 12:28:00,57.0,33.5,29.94,NNE,16,17.0,26.0,41,0.00,,,0.00,VWS V14.00,2013-03-31 17:28:00,
2013-03-31 12:30:00,57.0,32.9,29.94,NNE,16,14.0,26.0,40,0.00,,,0.00,VWS V14.00,2013-03-31 17:30:00,
2013-03-31 12:33:00,57.2,32.5,29.94,NNW,334,11.0,20.0,39,0.00,,,0.00,VWS V14.00,2013-03-31 17:33:00,
2013-03-31 12:38:00,57.2,32.5,29.94,NW,320,9.0,21.0,39,0.00,,,0.00,VWS V14.00,2013-03-31 17:38:00,
2013-03-31 12:43:00,57.2,33.1,29.94,NNW,342,15.0,21.0,40,0.00,,,0.00,VWS V14.00,2013-03-31 17:43:00,
2013-03-31 12:48:00,57.4,33.3,29.94,NNE,16,3.0,24.0,40,0.00,,,0.00,VWS V14.00,2013-03-31 17:48:00,
2013-03-31 12:53:00,57.7,31.6,29.94,NNE,29,6.0,24.0,37,0.00,,,0.00,VWS V14.00,2013-03-31 17:53:00,
2013-03-31 12:58:00,57.8,31.7,29.94,NNW,347,7.0,24.0,37,0.00,,,0.00,VWS V14.00,2013-03-31 17:58:00,
2013-03-31 13:00:00,57.8,31.7,29.94,NNW,347,7.0,24.0,37,0.00,,,0.00,VWS V14.00,2013-03-31 18:00:00,
2013-03-31 13:03:00,58.0,29.1,29.94,NNW,344,10.0,27.0,33,0.00,,,0.00,VWS V14.00,2013-03-31 18:03:00,
2013-03-31 13:08:00,58.2,28.5,29.94,North,355,10.0,27.0,32,0.00,,,0.00,VWS V14.00,2013-03-31 18:08:00,
2013-03-31 13:13:00,58.2,28.5,29.94,North,355,8.0,27.0,32,0.00,,,0.00,VWS V14.00,2013-03-31 18:13:00,
2013-03-31 13:19:00,58.4,28.7,29.94,NE,37,19.0,27.0,32,0.00,,,0.00,VWS V14.00,2013-03-31 18:19:00,
2013-03-31 13:24:00,58.5,28.0,29.94,NNE,18,5.0,28.0,31,0.00,,,0.00,VWS V14.00,2013-03-31 18:24:00,
2013-03-31 13:29:00,58.5,28.8,29.94,NNE,19,9.0,17.0,32,0.00,,,0.00,VWS V14.00,2013-03-31 18:29:00,
2013-03-31 13:30:00,58.5,28.8,29.94,North,350,9.0,28.0,32,0.00,,,0.00,VWS V14.00,2013-03-31 18:30:00,
2013-03-31 13:34:00,58.7,29.7,29.94,North,10,13.0,17.0,33,0.00,,,0.00,VWS V14.00,2013-03-31 18:34:00,
2013-03-31 13:39:00,59.0,27.6,29.94,North,11,26.0,26.0,30,0.00,,,0.00,VWS V14.00,2013-03-31 18:39:00,
2013-03-31 13:44:00,59.0,29.2,29.94,North,349,8.0,26.0,32,0.00,,,0.00,VWS V14.00,2013-03-31 18:44:00,
2013-03-31 13:49:00,59.3,28.7,29.94,NNE,12,12.0,26.0,31,0.00,,,0.00,VWS V14.00,2013-03-31 18:49:00,
2013-03-31 13:54:00,59.3,28.7,29.94,North,355,11.0,26.0,31,0.00,,,0.00,VWS V14.00,2013-03-31 18:54:00,
2013-03-31 14:00:00,59.3,28.7,29.94,North,355,10.0,18.0,31,0.00,,,0.00,VWS V14.00,2013-03-31 19:00:00,
2013-03-31 14:05:00,59.5,28.9,29.94,NNE,17,13.0,21.0,31,0.00,,,0.00,VWS V14.00,2013-03-31 19:05:00,
2013-03-31 14:10:00,59.8,28.3,29.94,NW,311,5.0,21.0,30,0.00,,,0.00,VWS V14.00,2013-03-31 19:10:00,
2013-03-31 14:15:00,60.0,28.5,29.93,NNE,19,12.0,21.0,30,0.00,,,0.00,VWS V14.00,2013-03-31 19:15:00,
2013-03-31 14:20:00,60.3,27.9,29.93,North,355,9.0,21.0,29,0.00,,,0.00,VWS V14.00,2013-03-31 19:20:00,
2013-03-31 14:25:00,60.4,28.0,29.93,North,10,9.0,21.0,29,0.00,,,0.00,VWS V14.00,2013-03-31 19:25:00,
2013-03-31 14:30:00,60.5,27.3,29.93,NNE,20,9.0,15.0,28,0.00,,,0.00,VWS V14.00,2013-03-31 19:30:00,
2013-03-31 14:35:00,60.4,27.2,29.93,North,5,11.0,22.0,28,0.00,,,0.00,VWS V14.00,2013-03-31 19:35:00,
2013-03-31 14:41:00,60.7,27.4,29.93,NNE,16,16.0,22.0,28,0.00,,,0.00,VWS V14.00,2013-03-31 19:41:00,
2013-03-31 14:46:00,60.9,27.6,29.93,North,355,4.0,23.0,28,0.00,,,0.00,VWS V14.00,2013-03-31 19:46:00,
2013-03-31 14:51:00,61.2,29.5,29.93,NW,323,12.0,23.0,30,0.00,,,0.00,VWS V14.00,2013-03-31 19:51:00,
2013-03-31 14:57:00,61.5,29.0,29.92,NNE,13,6.0,23.0,29,0.00,,,0.00,VWS V14.00,2013-03-31 19:57:00,
2013-03-31 15:00:00,61.5,29.0,29.92,NNE,15,7.0,23.0,29,0.00,,,0.00,VWS V14.00,2013-03-31 20:00:00,
2013-03-31 15:03:00,61.9,28.5,29.92,North,10,5.0,19.0,28,0.00,,,0.00,VWS V14.00,2013-03-31 20:03:00,
2013-03-31 15:08:00,61.8,27.5,29.92,North,355,16.0,20.0,27,0.00,,,0.00,VWS V14.00,2013-03-31 20:08:00,
2013-03-31 15:13:00,61.6,27.3,29.92,NNE,24,4.0,21.0,27,0.00,,,0.00,VWS V14.00,2013-03-31 20:13:00,
2013-03-31 15:18:00,61.5,27.2,29.92,NNW,340,8.0,21.0,27,0.00,,,0.00,VWS V14.00,2013-03-31 20:18:00,
2013-03-31 15:23:00,61.7,28.3,29.92,NNE,14,9.0,21.0,28,0.00,,,0.00,VWS V14.00,2013-03-31 20:23:00,
2013-03-31 15:28:00,61.6,28.2,29.92,North,355,4.0,21.0,28,0.00,,,0.00,VWS V14.00,2013-03-31 20:28:00,
2013-03-31 15:30:00,61.6,28.2,29.92,North,355,4.0,21.0,28,0.00,,,0.00,VWS V14.00,2013-03-31 20:30:00,
2013-03-31 15:34:00,61.7,28.3,29.92,NE,42,2.0,22.0,28,0.00,,,0.00,VWS V14.00,2013-03-31 20:34:00,
2013-03-31 15:39:00,61.5,27.2,29.92,NNE,33,7.0,22.0,27,0.00,,,0.00,VWS V14.00,2013-03-31 20:39:00,
2013-03-31 15:44:00,61.5,28.1,29.91,North,360,14.0,22.0,28,0.00,,,0.00,VWS V14.00,2013-03-31 20:44:00,
2013-03-31 15:49:00,61.4,28.0,29.91,North,350,4.0,22.0,28,0.00,,,0.00,VWS V14.00,2013-03-31 20:49:00,
2013-03-31 15:54:00,61.6,27.3,29.91,NNW,342,11.0,22.0,27,0.00,,,0.00,VWS V14.00,2013-03-31 20:54:00,
2013-03-31 16:00:00,61.3,27.9,29.91,NNW,346,10.0,17.0,28,0.00,,,0.00,VWS V14.00,2013-03-31 21:00:00,
2013-03-31 16:05:00,60.8,27.5,29.91,North,355,11.0,17.0,28,0.00,,,0.00,VWS V14.00,2013-03-31 21:05:00,
2013-03-31 16:10:00,60.6,28.2,29.91,NNE,24,6.0,17.0,29,0.00,,,0.00,VWS V14.00,2013-03-31 21:10:00,
2013-03-31 16:15:00,60.6,27.3,29.91,ENE,63,1.0,17.0,28,0.00,,,0.00,VWS V14.00,2013-03-31 21:15:00,
2013-03-31 16:20:00,60.4,27.2,29.91,NE,53,4.0,20.0,28,0.00,,,0.00,VWS V14.00,2013-03-31 21:20:00,
2013-03-31 16:25:00,60.2,27.9,29.91,NNE,16,8.0,20.0,29,0.00,,,0.00,VWS V14.00,2013-03-31 21:25:00,
2013-03-31 16:30:00,59.9,26.7,29.91,NNW,334,11.0,11.0,28,0.00,,,0.00,VWS V14.00,2013-03-31 21:30:00,
2013-03-31 16:35:00,59.7,28.2,29.91,NNW,328,6.0,13.0,30,0.00,,,0.00,VWS V14.00,2013-03-31 21:35:00,
2013-03-31 16:40:00,59.7,27.4,29.91,North,355,1.0,14.0,29,0.00,,,0.00,VWS V14.00,2013-03-31 21:40:00,
2013-03-31 16:45:00,59.8,26.6,29.91,NNE,31,4.0,14.0,28,0.00,,,0.00,VWS V14.00,2013-03-31 21:45:00,
2013-03-31 16:50:00,59.7,27.4,29.91,NE,56,6.0,16.0,29,0.00,,,0.00,VWS V14.00,2013-03-31 21:50:00,
2013-03-31 16:56:00,59.4,26.3,29.91,NNE,30,7.0,16.0,28,0.00,,,0.00,VWS V14.00,2013-03-31 21:56:00,
2013-03-31 17:00:00,59.2,26.1,29.91,NE,35,0.0,16.0,28,0.00,,,0.00,VWS V14.00,2013-03-31 22:00:00,
2013-03-31 17:01:00,58.9,25.0,29.90,East,83,5.0,5.0,27,0.00,,,0.00,VWS V14.00,2013-03-31 22:01:00,
2013-03-31 17:06:00,58.4,26.3,29.91,North,9,9.0,14.0,29,0.00,,,0.00,VWS V14.00,2013-03-31 22:06:00,
2013-03-31 17:12:00,58.2,26.1,29.91,NNE,17,10.0,14.0,29,0.00,,,0.00,VWS V14.00,2013-03-31 22:12:00,
2013-03-31 17:17:00,57.6,25.6,29.91,NNE,26,16.0,18.0,29,0.00,,,0.00,VWS V14.00,2013-03-31 22:17:00,
2013-03-31 17:22:00,57.1,25.2,29.90,NNE,33,7.0,18.0,29,0.00,,,0.00,VWS V14.00,2013-03-31 22:22:00,
2013-03-31 17:27:00,56.9,25.8,29.90,ENE,69,3.0,18.0,30,0.00,,,0.00,VWS V14.00,2013-03-31 22:27:00,
2013-03-31 17:30:00,56.9,25.8,29.90,ENE,58,5.0,18.0,30,0.00,,,0.00,VWS V14.00,2013-03-31 22:30:00,
2013-03-31 17:32:00,57.0,25.1,29.90,NNW,346,9.0,16.0,29,0.00,,,0.00,VWS V14.00,2013-03-31 22:32:00,
2013-03-31 17:37:00,56.8,25.7,29.90,North,9,4.0,16.0,30,0.00,,,0.00,VWS V14.00,2013-03-31 22:37:00,
2013-03-31 17:43:00,56.6,25.5,29.90,North,360,9.0,16.0,30,0.00,,,0.00,VWS V14.00,2013-03-31 22:43:00,
2013-03-31 17:48:00,56.4,26.2,29.91,NNE,15,6.0,16.0,31,0.00,,,0.00,VWS V14.00,2013-03-31 22:48:00,
2013-03-31 17:53:00,56.5,27.0,29.91,NNE,12,7.0,16.0,32,0.00,,,0.00,VWS V14.00,2013-03-31 22:53:00,
2013-03-31 17:59:00,56.4,26.9,29.91,ENE,69,5.0,6.0,32,0.00,,,0.00,VWS V14.00,2013-03-31 22:59:00,
2013-03-31 18:00:00,56.4,26.9,29.91,NE,38,5.0,16.0,32,0.00,,,0.00,VWS V14.00,2013-03-31 23:00:00,
2013-03-31 18:04:00,56.2,26.8,29.90,ENE,57,8.0,15.0,32,0.00,,,0.00,VWS V14.00,2013-03-31 23:04:00,
2013-03-31 18:10:00,55.7,26.3,29.90,East,82,5.0,15.0,32,0.00,,,0.00,VWS V14.00,2013-03-31 23:10:00,
2013-03-31 18:15:00,55.3,27.4,29.90,NE,49,6.0,15.0,34,0.00,,,0.00,VWS V14.00,2013-03-31 23:15:00,
2013-03-31 18:20:00,55.0,27.2,29.91,NE,36,6.0,15.0,34,0.00,,,0.00,VWS V14.00,2013-03-31 23:20:00,
2013-03-31 18:25:00,54.5,28.1,29.91,NNE,30,8.0,15.0,36,0.00,,,0.00,VWS V14.00,2013-03-31 23:25:00,
2013-03-31 18:30:00,54.1,27.8,29.91,NNE,24,5.0,10.0,36,0.00,,,0.00,VWS V14.00,2013-03-31 23:30:00,
2013-03-31 18:36:00,53.7,28.1,29.91,NE,44,5.0,12.0,37,0.00,,,0.00,VWS V14.00,2013-03-31 23:36:00,
2013-03-31 18:41:00,53.5,27.2,29.91,NE,51,4.0,12.0,36,0.00,,,0.00,VWS V14.00,2013-03-31 23:41:00,
2013-03-31 18:46:00,53.2,27.6,29.91,NE,38,6.0,12.0,37,0.00,,,0.00,VWS V14.00,2013-03-31 23:46:00,
2013-03-31 18:51:00,53.0,27.4,29.91,NE,51,3.0,12.0,37,0.00,,,0.00,VWS V14.00,2013-03-31 23:51:00,
2013-03-31 18:57:00,52.9,28.0,29.91,ENE,59,6.0,13.0,38,0.00,,,0.00,VWS V14.00,2013-03-31 23:57:00,
2013-03-31 19:00:00,52.9,28.0,29.91,NE,51,6.0,13.0,38,0.00,,,0.00,VWS V14.00,2013-04-01 00:00:00,
2013-03-31 19:02:00,52.3,27.5,29.91,NE,45,6.0,7.0,38,0.00,,,0.00,VWS V14.00,2013-04-01 00:02:00,
2013-03-31 19:07:00,51.9,27.7,29.92,NE,45,6.0,7.0,39,0.00,,,0.00,VWS V14.00,2013-04-01 00:07:00,
2013-03-31 19:12:00,51.6,28.1,29.93,NE,45,6.0,7.0,40,0.00,,,0.00,VWS V14.00,2013-04-01 00:12:00,
2013-03-31 19:17:00,51.3,27.8,29.93,NE,45,6.0,7.0,40,0.00,,,0.00,VWS V14.00,2013-04-01 00:17:00,
2013-03-31 19:22:00,50.9,28.1,29.93,NE,45,6.0,7.0,41,0.00,,,0.00,VWS V14.00,2013-04-01 00:22:00,
2013-03-31 19:27:00,50.6,27.8,29.93,NE,45,6.0,7.0,41,0.00,,,0.00,VWS V14.00,2013-04-01 00:27:00,
2013-03-31 19:30:00,50.6,27.8,29.93,NE,45,6.0,7.0,41,0.00,,,0.00,VWS V14.00,2013-04-01 00:30:00,
2013-03-31 19:33:00,50.6,27.8,29.93,NE,45,6.0,6.0,41,0.00,,,0.00,VWS V14.00,2013-04-01 00:33:00,
2013-03-31 19:38:00,50.6,27.8,29.94,NE,45,6.0,6.0,41,0.00,,,0.00,VWS V14.00,2013-04-01 00:38:00,
2013-03-31 19:43:00,50.6,27.8,29.95,NE,45,6.0,6.0,41,0.00,,,0.00,VWS V14.00,2013-04-01 00:43:00,
2013-03-31 19:48:00,50.6,27.8,29.95,NE,45,6.0,6.0,41,0.00,,,0.00,VWS V14.00,2013-04-01 00:48:00,
2013-03-31 19:53:00,49.3,26.6,29.95,NE,45,6.0,6.0,41,0.00,,,0.00,VWS V14.00,2013-04-01 00:53:00,
2013-03-31 19:58:00,49.1,28.1,29.95,NE,45,6.0,6.0,44,0.00,,,0.00,VWS V14.00,2013-04-01 00:58:00,
2013-03-31 20:00:00,49.1,28.1,29.95,NE,45,6.0,6.0,44,0.00,,,0.00,VWS V14.00,2013-04-01 01:00:00,
2013-03-31 20:03:00,48.8,28.4,29.95,NE,45,6.0,6.0,45,0.00,,,0.00,VWS V14.00,2013-04-01 01:03:00,
2013-03-31 20:08:00,48.4,29.1,29.95,NE,45,6.0,6.0,47,0.00,,,0.00,VWS V14.00,2013-04-01 01:08:00,
2013-03-31 20:14:00,47.7,29.0,29.95,NE,45,6.0,6.0,48,0.00,,,0.00,VWS V14.00,2013-04-01 01:14:00,
2013-03-31 20:19:00,47.0,29.3,29.97,NE,45,6.0,6.0,50,0.00,,,0.00,VWS V14.00,2013-04-01 01:19:00,
2013-03-31 20:24:00,46.4,29.8,29.97,NE,45,6.0,6.0,52,0.00,,,0.00,VWS V14.00,2013-04-01 01:24:00,
2013-03-31 20:29:00,45.9,29.8,29.98,NE,45,6.0,6.0,53,0.00,,,0.00,VWS V14.00,2013-04-01 01:29:00,
2013-03-31 20:30:00,46.0,29.8,29.98,NE,45,6.0,6.0,53,0.00,,,0.00,VWS V14.00,2013-04-01 01:30:00,
2013-03-31 20:34:00,45.5,30.3,29.98,NE,45,6.0,6.0,55,0.00,,,0.00,VWS V14.00,2013-04-01 01:34:00,
2013-03-31 20:39:00,45.1,30.4,29.98,NE,45,6.0,6.0,56,0.00,,,0.00,VWS V14.00,2013-04-01 01:39:00,
2013-03-31 20:44:00,44.8,30.1,29.99,NE,45,6.0,6.0,56,0.00,,,0.00,VWS V14.00,2013-04-01 01:44:00,
2013-03-31 20:49:00,44.5,30.2,29.99,NE,45,6.0,6.0,57,0.00,,,0.00,VWS V14.00,2013-04-01 01:49:00,
2013-03-31 20:55:00,44.0,31.4,30.00,NE,45,6.0,6.0,61,0.00,,,0.00,VWS V14.00,2013-04-01 01:55:00,
2013-03-31 21:00:00,43.4,31.7,30.00,NE,45,6.0,6.0,63,0.00,,,0.00,VWS V14.00,2013-04-01 02:00:00,
2013-03-31 21:05:00,43.2,31.9,30.01,NE,45,6.0,6.0,64,0.00,,,0.00,VWS V14.00,2013-04-01 02:05:00,
2013-03-31 21:10:00,42.3,32.1,30.02,NE,45,6.0,6.0,67,0.00,,,0.00,VWS V14.00,2013-04-01 02:10:00,
2013-03-31 21:15:00,41.9,32.8,30.02,NE,45,6.0,6.0,70,0.00,,,0.00,VWS V14.00,2013-04-01 02:15:00,
2013-03-31 21:20:00,41.4,33.4,30.03,NE,45,6.0,6.0,73,0.00,,,0.00,VWS V14.00,2013-04-01 02:20:00,
2013-03-31 21:25:00,40.9,33.9,30.04,NE,45,6.0,6.0,76,0.00,,,0.00,VWS V14.00,2013-04-01 02:25:00,
2013-03-31 21:30:00,40.3,34.0,30.04,NE,45,6.0,6.0,78,0.00,,,0.00,VWS V14.00,2013-04-01 02:30:00,
2013-03-31 21:35:00,39.6,34.0,30.04,NE,45,6.0,6.0,80,0.01,,,0.01,VWS V14.00,2013-04-01 02:35:00,
2013-03-31 21:41:00,38.9,33.9,30.05,NE,45,6.0,6.0,82,0.01,,,0.01,VWS V14.00,2013-04-01 02:41:00,
2013-03-31 21:46:00,38.4,33.7,30.06,NE,45,6.0,6.0,83,0.01,,,0.01,VWS V14.00,2013-04-01 02:46:00,
2013-03-31 21:51:00,37.9,33.8,30.06,NE,45,6.0,6.0,85,0.02,,,0.02,VWS V14.00,2013-04-01 02:51:00,
2013-03-31 21:56:00,37.4,33.3,30.06,NE,45,6.0,6.0,85,0.02,,,0.02,VWS V14.00,2013-04-01 02:56:00,
2013-03-31 22:00:00,37.2,33.1,30.07,NE,45,6.0,6.0,85,0.02,,,0.02,VWS V14.00,2013-04-01 03:00:00,
2013-03-31 22:02:00,36.9,33.1,30.07,NE,45,6.0,6.0,86,0.02,,,0.02,VWS V14.00,2013-04-01 03:02:00,
2013-03-31 22:07:00,36.4,32.6,30.07,NE,45,6.0,6.0,86,0.02,,,0.02,VWS V14.00,2013-04-01 03:07:00,
2013-03-31 22:12:00,35.9,32.4,30.07,NE,45,6.0,6.0,87,0.03,,,0.03,VWS V14.00,2013-04-01 03:12:00,
2013-03-31 22:17:00,35.6,32.4,30.08,NE,45,6.0,6.0,88,0.03,,,0.03,VWS V14.00,2013-04-01 03:17:00,
2013-03-31 22:23:00,35.3,32.1,30.08,NE,45,6.0,6.0,88,0.03,,,0.03,VWS V14.00,2013-04-01 03:23:00,
2013-03-31 22:28:00,35.0,32.1,30.08,NE,45,6.0,6.0,89,0.03,,,0.03,VWS V14.00,2013-04-01 03:28:00,
2013-03-31 22:30:00,35.0,32.1,30.08,NE,45,6.0,6.0,89,0.03,,,0.03,VWS V14.00,2013-04-01 03:30:00,
2013-03-31 22:33:00,34.8,31.9,30.08,NE,45,6.0,6.0,89,0.04,,,0.04,VWS V14.00,2013-04-01 03:33:00,
2013-03-31 22:38:00,34.6,32.0,30.08,NE,45,6.0,6.0,90,0.04,,,0.04,VWS V14.00,2013-04-01 03:38:00,
2013-03-31 22:43:00,34.5,31.9,30.08,NE,45,6.0,6.0,90,0.04,,,0.04,VWS V14.00,2013-04-01 03:43:00,
2013-03-31 22:48:00,34.4,31.8,30.09,NE,45,6.0,6.0,90,0.04,,,0.04,VWS V14.00,2013-04-01 03:48:00,
2013-03-31 22:53:00,34.3,32.0,30.09,NE,45,6.0,6.0,91,0.04,,,0.04,VWS V14.00,2013-04-01 03:53:00,
2013-03-31 22:58:00,34.2,31.6,30.09,NE,45,6.0,6.0,90,0.02,,,0.04,VWS V14.00,2013-04-01 03:58:00,
2013-03-31 23:00:00,34.2,31.9,30.09,NE,45,6.0,6.0,91,0.02,,,0.04,VWS V14.00,2013-04-01 04:00:00,
2013-03-31 23:01:00,34.2,31.9,30.10,NE,45,6.0,6.0,91,0.02,,,0.04,VWS V14.00,2013-04-01 04:01:00,
2013-03-31 23:02:00,34.1,31.8,30.10,NE,45,6.0,6.0,91,0.02,,,0.04,VWS V14.00,2013-04-01 04:02:00,
2013-03-31 23:03:00,34.1,31.8,30.10,NE,45,6.0,6.0,91,0.02,,,0.04,VWS V14.00,2013-04-01 04:03:00,
2013-03-31 23:08:00,33.9,31.6,30.10,NE,45,6.0,6.0,91,0.02,,,0.04,VWS V14.00,2013-04-01 04:08:00,
2013-03-31 23:14:00,33.8,31.5,30.10,NE,45,6.0,6.0,91,0.02,,,0.04,VWS V14.00,2013-04-01 04:14:00,
2013-03-31 23:16:00,33.7,31.4,30.10,NE,45,6.0,6.0,91,0.02,,,0.04,VWS V14.00,2013-04-01 04:16:00,
2013-03-31 23:21:00,33.6,31.3,30.10,NE,45,6.0,6.0,91,0.02,,,0.04,VWS V14.00,2013-04-01 04:21:00,
2013-03-31 23:26:00,33.4,31.1,30.10,NE,45,6.0,6.0,91,0.02,,,0.04,VWS V14.00,2013-04-01 04:26:00,
2013-03-31 23:30:00,33.4,31.1,30.10,NE,45,6.0,6.0,91,0.02,,,0.04,VWS V14.00,2013-04-01 04:30:00,
2013-03-31 23:32:00,33.2,30.9,30.10,NE,45,6.0,6.0,91,0.01,,,0.04,VWS V14.00,2013-04-01 04:32:00,
2013-03-31 23:37:00,33.1,30.8,30.10,NE,45,6.0,6.0,91,0.01,,,0.04,VWS V14.00,2013-04-01 04:37:00,
2013-03-31 23:42:00,33.0,30.9,30.10,NE,45,6.0,6.0,92,0.01,,,0.04,VWS V14.00,2013-04-01 04:42:00,
2013-03-31 23:47:00,33.0,30.9,30.10,NE,45,6.0,6.0,92,0.01,,,0.04,VWS V14.00,2013-04-01 04:47:00,
2013-03-31 23:52:00,32.9,30.8,30.10,NE,45,6.0,6.0,92,0.01,,,0.04,VWS V14.00,2013-04-01 04:52:00,
2013-03-31 23:57:00,32.8,30.7,30.11,NE,45,6.0,6.0,92,0.01,,,0.04,VWS V14.00,2013-04-01 04:57:00,